Torna al catalogo

COSMOS 2597

AttivoMilitarePO
NORAD 66647·PAYLOAD·🇷🇺 Russia

Lanciato Nov 25, 2025 da Plesetsk Cosmodrome

Loading…

Prossimi Passaggi (prossime 24 ore)

TLE

AggiornatoSource: Space-Track

Epoca: Sep 14, 2026, 14:10 UTC

1 66647U 25273A   26257.59090078  .00000025  00000-0  10731-3 0  9990
2 66647  82.4965 114.9373 0012602  25.7781 334.3925 12.42901578 36405

Traccia COSMOS 2597 in tempo reale con AllMySat

Download on the App Store